Total_Precipitation_Accumulation
0.33 0.70 1.27 2.04 2.78 3.14 2.67 1.83 1.33 1.12 1.03 1.02 1.02 1.06 1.15 1.31 1.98 3.36 3.50 3.13 2.69 2.41 2.44 2.75 2.97 2.83 2.88 2.87 2.79 2.79 2.81 3.04 3.12 3.15 3.20 3.11 2.90 2.86 2.79 2.65 2.81 2.95 2.86 2.94 2.86 2.68 2.50 2.34 2.26
0.56 1.13 1.66 2.35 3.09 2.97 2.41 1.63 1.22 1.08 0.92 0.81 0.80 0.99 1.15 1.17 1.39 2.24 3.02 2.96 2.20 1.99 2.10 2.24 2.66 2.55 2.41 2.35 2.40 2.59 2.61 2.61 2.70 2.90 3.15 3.23 3.13 3.01 2.95 2.82 2.96 3.01 2.84 2.90 2.76 2.48 2.17 2.06 2.10
0.86 1.49 2.04 2.58 2.44 2.20 1.92 1.34 1.01 0.78 0.86 0.89 0.84 0.89 1.28 1.58 1.60 2.10 2.60 2.37 1.90 1.73 1.90 2.24 2.35 2.26 2.15 2.11 2.18 2.46 2.35 2.32 2.43 2.56 2.89 3.10 3.16 3.29 3.24 3.01 3.00 2.84 2.74 2.77 2.62 2.27 1.98 1.85 1.94
1.16 1.65 1.94 2.12 1.57 1.31 1.16 0.96 0.71 0.61 0.71 0.77 0.87 1.14 1.52 1.75 1.74 2.00 2.03 1.76 1.47 1.51 1.70 2.03 2.17 2.05 1.94 1.95 2.10 2.35 2.24 2.27 2.34 2.37 2.72 2.91 2.89 2.95 2.99 3.00 2.84 2.65 2.56 2.55 2.65 2.22 1.98 1.88 1.99
1.24 1.74 2.06 1.61 1.17 1.09 0.93 0.74 0.59 0.53 0.64 0.80 0.87 1.33 2.01 2.18 1.83 1.75 1.59 1.51 1.36 1.47 1.74 1.92 2.08 2.01 1.93 2.00 2.07 2.23 2.25 2.21 2.20 2.35 2.67 2.77 2.74 2.86 2.85 2.78 2.52 2.32 2.39 2.42 2.45 2.27 2.03 1.96 2.10
1.21 1.64 1.58 1.20 1.02 0.90 0.79 0.66 0.58 0.53 0.68 0.91 0.89 1.28 2.40 2.55 1.95 1.65 1.43 1.36 1.27 1.28 1.59 1.74 1.98 2.02 1.94 1.93 1.94 2.07 2.00 1.99 2.12 2.31 2.51 2.46 2.42 2.55 2.59 2.58 2.46 2.20 2.29 2.23 2.14 2.26 2.15 2.20 2.21
1.25 1.26 1.01 0.87 0.80 0.80 0.72 0.61 0.56 0.52 0.71 1.03 0.93 1.34 2.48 2.85 2.13 1.58 1.38 1.27 1.22 1.19 1.41 1.72 1.98 2.01 1.95 1.91 1.86 2.00 2.06 1.98 2.03 2.17 2.31 2.37 2.35 2.31 2.25 2.35 2.40 2.21 2.13 2.02 2.02 2.20 2.36 2.38 2.19
0.76 0.90 0.75 0.62 0.60 0.63 0.55 0.48 0.48 0.63 0.77 0.91 0.85 1.28 2.34 2.48 1.90 1.67 1.58 1.51 1.57 1.55 1.59 1.63 1.62 1.70 1.78 1.83 1.95 2.07 2.14 2.09 2.09 2.15 2.25 2.39 2.32 2.22 2.11 1.96 2.16 2.20 2.11 2.01 1.96 2.13 2.27 2.14 2.02
0.53 0.84 0.73 0.53 0.44 0.46 0.42 0.41 0.43 0.59 0.77 0.97 1.07 1.24 1.67 1.53 1.59 1.73 1.89 2.04 2.07 2.11 2.16 1.90 1.69 1.64 1.75 1.67 1.80 2.30 2.50 2.38 2.45 2.54 2.52 2.62 2.61 2.41 2.38 2.25 2.42 2.31 2.31 2.31 2.23 2.23 2.37 2.14 1.89
0.50 0.67 0.49 0.30 0.28 0.34 0.33 0.36 0.45 0.69 0.99 1.29 1.34 1.39 1.59 1.58 1.51 1.64 1.84 2.08 2.30 2.62 2.64 2.25 1.94 1.71 1.59 1.42 1.90 2.47 2.41 2.51 2.67 2.75 2.59 2.85 3.05 2.92 2.37 2.69 3.05 3.02 3.09 2.92 2.75 2.65 2.44 2.36 2.18
0.41 0.38 0.29 0.23 0.22 0.25 0.29 0.34 0.45 0.76 1.25 1.70 1.95 2.01 1.87 1.74 1.79 1.86 1.95 2.32 2.74 2.99 2.86 2.39 2.11 1.93 1.67 1.78 1.88 2.18 2.50 2.81 2.73 2.51 2.49 2.89 2.79 2.59 2.60 2.85 3.05 3.21 3.06 2.90 2.88 2.99 2.73 2.99 3.43
0.23 0.19 0.18 0.20 0.19 0.22 0.27 0.34 0.48 0.74 1.20 1.47 1.68 1.96 2.10 2.03 2.25 2.32 2.28 2.72 3.12 3.13 2.84 2.51 2.28 2.08 1.94 1.88 1.90 2.07 2.24 2.50 2.61 2.68 2.59 2.83 3.28 3.24 3.18 3.31 3.29 3.37 3.49 3.82 3.59 3.70 3.45 3.44 3.49
0.16 0.17 0.17 0.20 0.22 0.23 0.25 0.36 0.52 0.81 0.93 1.08 1.22 1.41 1.75 2.18 2.61 2.83 2.93 3.30 3.34 3.26 3.05 2.77 2.40 2.43 2.35 2.48 2.57 2.23 2.33 2.47 2.74 3.03 2.97 3.01 3.44 3.46 3.43 3.46 3.57 3.33 3.36 3.64 3.99 3.77 3.79 3.92 3.73
0.16 0.15 0.17 0.22 0.26 0.27 0.33 0.46 0.54 0.88 0.88 0.95 1.15 1.38 1.95 2.56 2.81 3.19 3.61 3.92 3.86 3.68 3.64 3.37 2.96 2.96 3.00 2.90 2.92 2.84 2.56 2.79 2.91 3.09 3.03 3.15 3.44 3.66 3.62 3.41 3.54 3.39 3.30 3.46 3.76 3.76 4.19 4.17 4.10
0.16 0.19 0.25 0.27 0.30 0.33 0.41 0.72 0.77 0.91 0.94 1.03 1.38 1.56 2.02 2.40 2.73 2.90 3.39 3.75 3.78 3.81 3.94 3.88 3.70 3.76 3.75 3.54 3.30 3.09 2.98 2.94 3.25 3.41 3.29 3.33 3.38 3.65 3.64 3.57 3.44 3.43 3.44 3.67 3.79 3.83 4.19 4.15 4.08
0.23 0.36 0.49 0.39 0.33 0.35 0.54 1.09 0.94 0.88 1.06 1.33 1.56 1.68 1.94 2.16 2.55 2.69 3.05 3.58 3.89 3.94 4.19 4.38 4.25 4.30 4.23 4.17 3.98 3.63 3.50 3.49 3.46 3.39 3.43 3.32 3.42 3.56 3.83 3.64 3.36 3.45 3.42 3.61 4.02 4.14 4.38 4.54 4.48
0.40 0.52 0.59 0.55 0.42 0.37 0.60 1.13 1.10 1.09 1.20 1.33 1.45 1.70 1.86 1.89 2.26 2.72 3.03 3.61 4.08 4.25 4.66 5.06 5.14 5.06 4.80 4.53 4.44 4.32 4.17 3.94 3.67 3.60 3.50 3.33 3.29 3.30 3.68 3.63 3.56 3.56 3.77 3.80 3.58 4.21 4.56 4.73 4.64
0.52 0.48 0.51 0.56 0.49 0.47 0.65 0.87 0.97 1.13 1.30 1.39 1.38 1.52 1.56 1.69 2.15 2.72 3.09 3.46 4.15 4.70 5.34 5.48 5.51 5.80 5.61 5.31 5.20 5.02 4.63 4.24 3.91 3.75 3.60 3.28 3.22 3.19 3.60 3.43 3.46 3.55 3.93 4.10 4.19 4.64 4.66 4.50 4.61
0.36 0.47 0.58 0.58 0.48 0.65 0.86 1.02 1.09 1.18 1.27 1.46 1.49 1.40 1.44 1.73 2.15 2.61 3.05 3.48 3.92 4.53 5.18 5.87 6.11 6.01 5.86 5.62 5.21 4.88 4.51 4.27 3.92 3.54 3.27 3.20 3.18 3.34 3.91 3.54 3.92 3.78 3.86 3.95 4.09 4.41 4.44 4.19 4.42
0.28 0.46 0.60 0.60 0.50 0.62 0.92 1.19 1.29 1.23 1.21 1.26 1.41 1.52 1.54 1.80 2.14 2.59 3.12 3.39 3.59 3.93 4.42 4.93 5.31 5.03 4.71 4.58 4.56 4.48 4.45 4.00 3.83 3.66 3.70 3.36 3.37 3.42 3.52 3.81 3.74 3.78 3.96 3.74 3.81 4.19 4.11 3.67 4.02
0.29 0.41 0.47 0.49 0.52 0.67 1.02 1.52 1.51 1.22 1.10 1.12 1.23 1.50 1.71 1.76 2.05 2.38 2.85 3.08 3.21 3.36 3.51 3.72 4.01 4.11 4.18 4.30 4.46 4.64 4.80 4.45 4.28 4.15 4.02 3.54 3.45 3.44 3.58 3.57 3.53 3.68 3.62 3.64 3.66 3.83 3.99 3.87 3.80
0.34 0.27 0.29 0.35 0.59 0.98 1.09 1.82 1.74 1.37 1.30 1.22 1.22 1.34 1.46 1.62 1.73 1.86 2.19 2.62 2.62 2.71 2.95 3.47 3.75 3.91 4.16 4.51 4.58 4.57 4.52 4.47 4.40 4.44 4.35 4.17 3.90 3.67 3.50 3.37 3.34 3.35 3.21 3.38 3.14 3.45 3.72 3.94 3.63
0.25 0.23 0.26 0.36 0.59 0.86 0.88 1.32 1.51 1.51 1.42 1.23 1.15 1.25 1.32 1.40 1.50 1.62 1.83 2.24 2.31 2.28 2.60 3.21 3.81 4.10 4.34 4.60 4.67 4.92 4.76 4.61 4.43 4.44 4.50 4.30 3.99 3.63 3.26 3.30 3.33 3.31 3.12 3.01 2.98 3.28 3.26 3.38 3.43
0.18 0.28 0.42 0.55 0.81 1.28 0.94 1.05 1.48 1.46 1.26 1.14 1.00 1.01 1.12 1.09 1.15 1.35 1.68 2.13 2.31 2.40 2.72 3.18 3.73 4.19 4.39 4.44 4.46 4.59 4.62 4.60 4.34 4.20 3.88 3.49 3.35 3.21 2.95 2.99 3.08 2.99 2.96 2.99 2.95 3.02 3.04 3.14 3.24
0.21 0.44 1.03 1.44 1.69 1.67 0.91 0.96 1.32 1.13 1.05 0.98 1.00 0.99 0.90 0.92 1.00 1.06 1.23 1.35 1.51 1.72 2.01 2.40 2.90 3.31 3.55 3.64 3.69 3.68 3.90 3.96 3.66 3.33 3.09 2.85 2.65 2.50 2.46 2.59 2.72 2.61 2.67 2.71 2.90 2.83 2.75 2.92 3.13
0.22 0.32 0.74 1.14 1.28 1.23 1.02 1.38 1.37 0.98 0.84 0.83 0.89 0.84 0.71 0.66 0.66 0.70 0.81 0.86 1.13 1.45 1.90 2.21 2.36 2.56 2.81 2.92 2.97 2.99 3.05 3.02 2.85 2.88 2.57 2.39 2.26 2.15 2.23 2.35 2.41 2.38 2.41 2.34 2.74 2.57 2.52 2.68 2.77
0.18 0.22 0.31 0.44 0.57 0.95 1.21 1.56 1.45 1.08 0.96 0.88 0.73 0.64 0.59 0.51 0.51 0.55 0.58 0.68 0.94 1.26 1.63 1.85 1.98 2.29 2.59 2.71 2.63 2.57 2.43 2.47 2.59 2.52 2.29 2.19 2.26 2.14 2.23 2.18 2.28 2.34 2.39 2.46 2.61 2.47 2.44 2.70 2.65
0.17 0.25 0.31 0.39 0.68 1.09 1.27 1.58 1.68 1.39 1.21 0.94 0.84 0.86 0.67 0.58 0.50 0.57 0.64 0.73 0.90 1.04 1.38 1.61 1.82 2.16 2.38 2.43 2.37 2.24 2.29 2.26 2.37 2.28 2.22 2.18 2.20 2.27 2.29 2.26 2.40 2.36 2.32 2.36 2.45 2.22 2.25 2.53 2.59
0.21 0.24 0.28 0.35 0.45 0.81 1.29 1.52 1.33 1.19 1.08 0.86 0.81 0.82 0.79 0.77 0.56 0.53 0.67 0.77 0.88 1.06 1.32 1.61 1.91 2.12 2.25 2.15 2.13 2.18 2.16 2.14 2.19 2.16 2.13 2.17 2.28 2.31 2.25 2.21 2.31 2.33 2.28 2.35 2.43 2.19 2.33 2.46 2.49
0.21 0.23 0.25 0.38 0.41 0.43 0.81 1.20 0.94 0.84 0.88 0.84 0.80 0.85 0.85 0.81 0.71 0.70 0.82 0.87 0.94 1.09 1.26 1.58 1.95 2.20 2.27 2.16 2.28 2.42 2.44 2.44 2.38 2.17 2.06 2.14 2.22 2.27 2.33 2.34 2.32 2.24 2.27 2.50 2.57 2.34 2.43 2.53 2.49